{"data":{"norad_id":66042,"epoch":"2026-05-25T02:59:08.324160Z","epoch_age_seconds":67739,"freshness":"FRESH","line1":"1 66042U 25233K   26145.12440190  .00000137  00000+0  19359-3 0  9992","line2":"2 66042  89.0035  45.4447 0002149  69.3094 290.8287 13.51009261 30120","mean_motion":13.51009261,"eccentricity":0.0002149,"inclination_deg":89.0035,"raan_deg":45.4447,"arg_perigee_deg":69.3094,"mean_anomaly_deg":290.8287,"bstar":0.00019359,"rev_number":3012,"period_min":106.58698215985,"perigee_km":1066.9472618108,"apogee_km":1070.1478468322,"semimajor_km":7446.6845543215,"source":"CELESTRAK","updated_at":"2026-05-25T13:38:05.921529Z"}}